Tracking 31027 objects as of 19-Jul-2025
HD Live streaming from Space Station
objects crossing your sky now

NOAA 16 DEB

Track NOAA 16 DEB now!
10-day predictions


NORAD ID: 41232
Int'l Code: 2000-055EM
Perigee: 798.8 km
Apogee: 861.6 km
Inclination: 98.9 °
Period: 101.4 minutes
Semi major axis: 7201 km
RCS: Unknown
Launch date: September 21, 2000
Source: United States (US)
Launch site: AIR FORCE WESTERN TEST RANGE (AFWTR)

Note: This is SATELLITE DEBRIS
Your satellite tracking list
FENGYUN 1C DEB
Track 1 satellite(s)




NASA's NSSDC Master Catalog

Two Line Element Set (TLE):
1 41232U 00055EM  25199.47534596  .00003715  00000-0  17281-2 0  9998
2 41232  98.8889 267.8879 0043629 133.8976 226.5816 14.20674026492481
Source of the keplerian elements: AFSPC